Location: Helsinki
(60.1699°N, 24.9384°E)
Time: 22:41:05
(UTC+02:00)

Transit 4A - Pass Details

Date: 05 November 2020
Orbit: 862 x 982 km, 66.8° (Epoch: 25 November)

Event Time Altitude Azimuth Distance (km) Brightness Sun altitude
Rises 22:10:12 0° 312° (NW) 3,699 11.9 -41.3°
Reaches altitude 10° 22:12:53 10° 306° (NW) 2,747 11.0 -41.5°
Enters shadow 22:15:33 25° 293° (WNW) 1,896 9.8 -41.7°
